Denver Centennial, CO

8:15 AM MST on December 17, 2017 (GMT -0700)
Centennial

Weather History for KAPA - February, 2014

Change the Weather History Date:

Saturday, February 22, 2014

  Actual Average Record
Temperature  
Mean Temperature 36 °F -  
Max Temperature 51 °F 42 °F 62 °F (2002)
Min Temperature 21 °F 20 °F 8 °F (2013)
Degree Days  
Heating Degree Days 29    
Month to date heating degree days 810  
Moisture  
Dew Point 16 °F    
Average Humidity 50    
Maximum Humidity 85    
Minimum Humidity 14    
Precipitation  
Precipitation T in - - ()
Month to date precipitation 0.09  
Year to date precipitation 0.85  
Sea Level Pressure  
Sea Level Pressure 29.89 in    
Wind  
Wind Speed 8 mph (SW)    
Max Wind Speed 28 mph    
Max Gust Speed 36 mph    
Visibility 9 miles    
Events Snow    
Averages and records for this station are not official NWS values.
T = Trace of Precipitation, MM = Missing Value Source: NWS Daily Summary

Daily Weather History Graph

Daily Weather History Graph

Search for Another Location

Airport or City:

Trip Planner

Search our weather history database for the weather conditions in past years. The results will help you decide how hot, cold, wet, or windy it might be!

Date:

Astronomy

Feb. 22, 2014 Rise Set
Actual Time 6:42 AM MST 5:44 PM MST
Civil Twilight 6:15 AM MST 6:11 PM MST
Nautical Twilight 5:43 AM MST 6:42 PM MST
Astronomical Twilight 5:12 AM MST 7:13 PM MST
Moon 12:39 AM MST (2/22) 10:57 AM MST (2/22)
Length of Visible Light 11h 56m
Length of Day
11h 01m
Waning Gibbous, 49% of the Moon is Illuminated
Feb 22
Waning Gibbous
Mar 1
New
Mar 8
First Quarter
Mar 16
Full
Mar 23
Last Quarter

Hourly Weather History & Observations

Time (MST) Temp. Windchill Dew Point Humidity Pressure Visibility Wind Dir Wind Speed Gust Speed Precip Events Conditions
12:53 AM 26.1 °F 20.5 °F 12.9 °F 58% 29.87 in 10.0 mi East 4.6 mph - N/A   Partly Cloudy
1:53 AM 28.0 °F 22.8 °F 15.1 °F 58% 29.86 in 10.0 mi South 4.6 mph - N/A   Clear
2:53 AM 28.9 °F 23.9 °F 16.0 °F 58% 29.86 in 10.0 mi SSE 4.6 mph - N/A   Clear
3:53 AM 26.1 °F 20.5 °F 15.1 °F 63% 29.87 in 10.0 mi SSE 4.6 mph - N/A   Partly Cloudy
4:53 AM 25.0 °F 17.1 °F 16.0 °F 69% 29.88 in 10.0 mi South 6.9 mph - N/A   Partly Cloudy
5:53 AM 23.0 °F 15.8 °F 16.0 °F 74% 29.91 in 10.0 mi SSE 5.8 mph - N/A   Partly Cloudy
6:53 AM 23.0 °F 18.4 °F 15.1 °F 72% 29.90 in 10.0 mi SSE 3.5 mph - N/A   Scattered Clouds
7:53 AM 28.9 °F 25.2 °F 19.0 °F 67% 29.89 in 10.0 mi ESE 3.5 mph - N/A   Scattered Clouds
8:53 AM 36.0 °F 31.1 °F 21.0 °F 55% 29.88 in 10.0 mi ESE 5.8 mph - N/A   Scattered Clouds
9:53 AM 45.0 °F 37.6 °F 10.0 °F 24% 29.83 in 10.0 mi West 17.3 mph 23.0 mph N/A   Scattered Clouds
10:53 AM 46.9 °F - 7.0 °F 20% 29.81 in 10.0 mi WNW 21.9 mph 29.9 mph N/A   Scattered Clouds
11:53 AM 48.9 °F - 3.9 °F 16% 29.79 in 10.0 mi West 23.0 mph 34.5 mph N/A   Scattered Clouds
12:53 PM 50.0 °F - 3.0 °F 15% 29.78 in 10.0 mi West 20.7 mph 33.4 mph N/A   Scattered Clouds
1:53 PM 51.1 °F - 6.1 °F 16% 29.75 in 10.0 mi West 18.4 mph 28.8 mph N/A   Scattered Clouds
2:53 PM 48.9 °F - 6.1 °F 18% 29.77 in 10.0 mi West 16.1 mph 26.5 mph N/A   Scattered Clouds
3:53 PM 48.0 °F - 8.1 °F 20% 29.79 in 10.0 mi West 19.6 mph 26.5 mph N/A   Scattered Clouds
4:53 PM 46.0 °F 39.3 °F 10.0 °F 23% 29.81 in 10.0 mi WNW 16.1 mph - N/A   Partly Cloudy
5:53 PM 42.1 °F 35.7 °F 12.0 °F 29% 29.86 in 10.0 mi WNW 11.5 mph - N/A   Scattered Clouds
6:53 PM 35.1 °F 29.3 °F 21.0 °F 57% 29.95 in 10.0 mi NNE 6.9 mph 21.9 mph N/A   Scattered Clouds
7:53 PM 28.9 °F 19.2 °F 24.1 °F 82% 30.01 in 10.0 mi ENE 11.5 mph 18.4 mph N/A   Overcast
8:53 PM 28.0 °F 20.0 °F 23.0 °F 81% 30.04 in 10.0 mi NNE 8.1 mph - 0.00 in   Overcast
9:13 PM 28.0 °F 20.8 °F 24.1 °F 85% 29.97 in 6.0 mi NE 6.9 mph - 0.00 in Snow Light Snow
9:38 PM 27.0 °F 23.0 °F 25.0 °F 92% 29.98 in 2.5 mi NW 3.5 mph - 0.00 in Snow Light Snow
9:53 PM 27.0 °F - 25.0 °F 92% 30.02 in 1.5 mi Calm Calm - 0.00 in Snow Light Snow
10:07 PM 27.0 °F - 25.0 °F 92% 29.98 in 2.0 mi Calm Calm - 0.00 in Snow Light Snow
10:31 PM 28.0 °F - 25.0 °F 88% 29.99 in 7.0 mi Calm Calm - 0.00 in Snow Light Snow
10:53 PM 28.0 °F - 25.0 °F 88% 30.01 in 9.0 mi Calm Calm - 0.00 in Snow Light Snow
11:53 PM 28.0 °F 22.8 °F 25.0 °F 88% 29.98 in 3.0 mi South 4.6 mph - 0.00 in Snow Light Snow